This is the latest recevied weather packets stored in our database for station/object WP4PW. If no packets are shown the sender has not sent any weather packets the latest 10 day(s).
| Time | Temp. | Humidity | Pressure | Rain* | Wind** | Luminosity | Snow |
|---|---|---|---|---|---|---|---|
| 1778085457 | 30.56° C | 77% | 1022.8 hPa | 0 mm | - | 820 W/m² | - |
| 1778085152 | 30° C | 77% | 1022.8 hPa | 0 mm | - | 821 W/m² | - |
| 1778084848 | 30° C | 78% | 1022.7 hPa | 0 mm | - | 824 W/m² | - |
| 1778084546 | 30° C | 77% | 1022.9 hPa | 0 mm | - | 824 W/m² | - |
| 1778084243 | 30° C | 77% | 1023 hPa | 0 mm | - | 821 W/m² | - |
| 1778083941 | 30° C | 78% | 1023 hPa | 0 mm | - | 824 W/m² | - |
| 1778083638 | 30.56° C | 77% | 1022.8 hPa | 0 mm | - | 822 W/m² | - |
| 1778083335 | 30° C | 76% | 1023.1 hPa | 0 mm | - | 819 W/m² | - |
| 1778083033 | 30° C | 78% | 1023.3 hPa | 0 mm | - | 817 W/m² | - |
| 1778082730 | 30° C | 79% | 1023.4 hPa | 0 mm | - | 815 W/m² | - |
| 1778081592 | 30° C | 77% | 1023.6 hPa | 0 mm | - | 802 W/m² | - |
| 1778081288 | 30.56° C | 77% | 1023.3 hPa | 0 mm | - | 797 W/m² | - |
| 1778080986 | 30.56° C | 77% | 1023.5 hPa | 0 mm | - | 794 W/m² | - |
| 1778080685 | 30.56° C | 78% | 1023.5 hPa | 0 mm | - | 786 W/m² | - |
| 1778080381 | 29.44° C | 80% | 1023.4 hPa | 0 mm | - | 785 W/m² | - |
| 1778080077 | 30° C | 79% | 1023.3 hPa | 0 mm | - | 775 W/m² | - |
| 1778079775 | 30° C | 79% | 1023.4 hPa | 0 mm | - | 770 W/m² | - |
| 1778079471 | 29.44° C | 79% | 1023.2 hPa | 0 mm | - | 764 W/m² | - |
| 1778079168 | 30° C | 77% | 1023.4 hPa | 0 mm | - | 755 W/m² | - |
| 1778078865 | 30.56° C | 79% | 1023.3 hPa | 0 mm | - | 744 W/m² | - |
| 1778078562 | 30° C | 79% | 1023.4 hPa | 0 mm | - | 691 W/m² | - |
| 1778078260 | 30° C | 75% | 1023.4 hPa | 0 mm | - | 720 W/m² | - |
| 1778077957 | 29.44° C | 78% | 1023.4 hPa | 0 mm | - | 716 W/m² | - |
| 1778077656 | 30° C | 74% | 1023.4 hPa | 0 mm | - | 701 W/m² | - |
| 1778077353 | 30° C | 75% | 1023.5 hPa | 0 mm | - | 693 W/m² | - |
* Rain latest hour (hover to see other rain measurements)
** Current wind speed in m/s (hover to see current wind gust speed)